Satellite-Ground Cal/Val Region Overpasses Predictions

Prediction of Satellite NPP Overpassing Cal/Val Region: PacNW

Region Location: (Latitude: 10.00, Longitude: 139.50) to (Latitude: 22.70, Longitude: 165.60).

Table of predicted overpasses for the next 14.0 days since TLE Epoch: 11/17/2015
Interval Starting Time Starting Location Ending Time Ending Location
1 11/17/2015 15:01:05 ( 22.70, 160.26) 11/17/2015 15:04:41 ( 10.02, 157.25)
2 11/18/2015 02:12:51 ( 19.45, 165.59) 11/18/2015 02:13:46 ( 22.67, 164.80)
3 11/18/2015 03:51:41 ( 10.05, 142.42) 11/18/2015 03:55:10 ( 22.33, 139.51)
4 11/18/2015 14:42:04 ( 22.66, 165.01) 11/18/2015 14:45:39 ( 10.04, 162.01)
5 11/18/2015 16:23:34 ( 22.65, 139.63) 11/18/2015 16:23:43 ( 22.13, 139.50)
6 11/19/2015 03:32:39 ( 10.03, 147.18) 11/19/2015 03:36:14 ( 22.66, 144.18)
7 11/19/2015 16:04:31 ( 22.67, 144.39) 11/19/2015 16:08:06 ( 10.05, 141.40)
8 11/20/2015 03:13:36 ( 10.01, 151.94) 11/20/2015 03:17:12 ( 22.70, 148.93)
9 11/20/2015 15:45:29 ( 22.69, 149.15) 11/20/2015 15:49:05 ( 10.02, 146.14)
10 11/21/2015 02:54:35 ( 10.05, 156.68) 11/21/2015 02:58:10 ( 22.68, 153.69)
11 11/21/2015 15:26:27 ( 22.65, 153.90) 11/21/2015 15:30:02 ( 10.03, 150.90)
12 11/22/2015 02:35:32 ( 10.04, 161.44) 11/22/2015 02:39:07 ( 22.66, 158.45)
13 11/22/2015 15:07:25 ( 22.67, 158.66) 11/22/2015 15:11:00 ( 10.05, 155.66)
14 11/23/2015 02:17:15 ( 12.66, 165.59) 11/23/2015 02:20:05 ( 22.65, 163.21)
15 11/23/2015 03:58:00 ( 10.03, 140.82) 11/23/2015 03:59:37 ( 15.73, 139.51)
16 11/23/2015 14:48:22 ( 22.69, 163.42) 11/23/2015 14:51:58 ( 10.01, 160.41)
17 11/24/2015 03:38:57 ( 10.01, 145.58) 11/24/2015 03:42:33 ( 22.70, 142.57)
18 11/24/2015 14:32:24 ( 11.91, 165.60) 11/24/2015 14:32:56 ( 10.03, 165.17)
19 11/24/2015 16:10:51 ( 22.64, 142.79) 11/24/2015 16:14:26 ( 10.02, 139.79)
20 11/25/2015 03:19:56 ( 10.05, 150.33) 11/25/2015 03:23:31 ( 22.68, 147.33)
21 11/25/2015 15:51:48 ( 22.66, 147.55) 11/25/2015 15:55:23 ( 10.04, 144.55)
22 11/26/2015 03:00:53 ( 10.04, 155.09) 11/26/2015 03:04:28 ( 22.67, 152.09)
23 11/26/2015 15:32:46 ( 22.67, 152.31) 11/26/2015 15:36:21 ( 10.05, 149.31)
24 11/27/2015 02:41:51 ( 10.03, 159.85) 11/27/2015 02:45:26 ( 22.65, 156.85)
25 11/27/2015 15:13:44 ( 22.69, 157.07) 11/27/2015 15:17:20 ( 10.01, 154.06)
26 11/28/2015 02:22:48 ( 10.01, 164.61) 11/28/2015 02:26:24 ( 22.70, 161.60)
27 11/28/2015 14:54:42 ( 22.64, 161.81) 11/28/2015 14:58:17 ( 10.02, 158.82)
28 11/29/2015 03:45:16 ( 10.01, 143.99) 11/29/2015 03:48:52 ( 22.69, 140.98)
29 11/29/2015 14:36:48 ( 18.67, 165.59) 11/29/2015 14:39:15 ( 10.04, 163.58)
30 11/29/2015 16:17:10 ( 22.65, 141.19) 11/29/2015 16:19:09 ( 15.67, 139.50)
31 11/30/2015 03:26:14 ( 10.06, 148.73) 11/30/2015 03:29:49 ( 22.68, 145.74)
32 11/30/2015 15:58:07 ( 22.66, 145.95) 11/30/2015 16:01:42 ( 10.04, 142.96)


NCC Satellite Cal/Val Overpasses Prediction Service
